TimeEST,TemperatureF,Dew PointF,Humidity,Sea Level PressureIn,VisibilityMPH,Wind Direction,Wind SpeedMPH,Gust SpeedMPH,PrecipitationIn,Events,Conditions,WindDirDegrees,DateUTC
12:56 AM,21.9,12.0,66,29.85,-9999.0,SSW,10.4,18.4,N/A,,Unknown,200,2012-12-31 05:56:00
1:56 AM,23.0,12.0,63,29.84,-9999.0,SSW,11.5,-,N/A,,Unknown,200,2012-12-31 06:56:00
2:56 AM,21.9,12.0,66,29.84,-9999.0,SSW,10.4,-,N/A,,Unknown,210,2012-12-31 07:56:00
3:56 AM,21.9,12.0,66,29.83,-9999.0,SW,11.5,-,N/A,,Unknown,220,2012-12-31 08:56:00
4:56 AM,21.9,12.9,68,29.83,-9999.0,SW,6.9,-,N/A,,Unknown,220,2012-12-31 09:56:00
5:56 AM,21.9,12.9,68,29.83,-9999.0,SW,10.4,16.1,N/A,,Unknown,230,2012-12-31 10:56:00
6:56 AM,24.1,15.1,69,29.84,-9999.0,WSW,8.1,-,N/A,,Unknown,240,2012-12-31 11:56:00
7:56 AM,26.1,18.0,71,29.86,-9999.0,West,5.8,-,N/A,,Unknown,270,2012-12-31 12:56:00
8:56 AM,28.9,19.0,67,29.88,-9999.0,NW,16.1,27.6,N/A,,Unknown,310,2012-12-31 13:56:00
9:56 AM,27.0,19.0,72,29.90,-9999.0,NW,19.6,27.6,N/A,,Unknown,320,2012-12-31 14:56:00
10:56 AM,25.0,19.0,78,29.93,-9999.0,NNW,19.6,28.8,N/A,,Unknown,330,2012-12-31 15:56:00
11:56 AM,23.0,17.1,78,29.95,-9999.0,NW,16.1,29.9,0.01,,Unknown,320,2012-12-31 16:56:00
12:56 PM,21.9,16.0,78,29.96,-9999.0,NW,13.8,20.7,0.01,,Unknown,310,2012-12-31 17:56:00
1:56 PM,21.0,12.0,68,29.96,-9999.0,NW,21.9,29.9,0.01,,Unknown,310,2012-12-31 18:56:00
2:56 PM,19.9,10.0,65,29.97,-9999.0,NW,19.6,29.9,N/A,,Unknown,320,2012-12-31 19:56:00
3:56 PM,19.9,10.0,65,30.00,-9999.0,WNW,13.8,25.3,N/A,,Unknown,300,2012-12-31 20:56:00
4:56 PM,19.0,10.9,71,30.02,-9999.0,NW,18.4,26.5,N/A,,Unknown,310,2012-12-31 21:56:00
5:56 PM,19.9,9.0,62,30.04,-9999.0,NW,13.8,24.2,N/A,,Unknown,310,2012-12-31 22:56:00
6:56 PM,19.9,12.9,74,30.06,-9999.0,NW,12.7,21.9,0.01,,Unknown,310,2012-12-31 23:56:00
7:56 PM,21.0,10.0,63,30.06,-9999.0,NNW,19.6,24.2,N/A,,Unknown,330,2013-01-01 00:56:00
8:56 PM,21.0,8.1,57,30.06,-9999.0,NNW,20.7,28.8,N/A,,Unknown,340,2013-01-01 01:56:00
9:56 PM,21.9,12.0,66,30.06,-9999.0,North,19.6,25.3,0.01,,Unknown,350,2013-01-01 02:56:00
10:56 PM,21.0,15.1,78,30.06,-9999.0,North,12.7,-,N/A,,Unknown,350,2013-01-01 03:56:00
11:56 PM,21.9,14.0,72,30.08,-9999.0,North,12.7,-,N/A,,Unknown,360,2013-01-01 04:56:00